Showing default

COSMOS 2249, 22650

Orbit data source: Space-Track

COSMOS 2249, 22650 is a payload satellite owned by VKS (CIS) in LEO that was launched on Tue, 11 May 1993 UTC via a TSIKLON-3 launch vehicle from the Plesetsk Missile And Space Complex (PKMTR). Payload-class satellites include a variety of spacecraft equipped with specific instruments for various scientific and technological missions. These include communications satellites like Starlink; space stations such as the ISS; scientific satellites like the Hubble; Earth observation satellites from companies like Planet Labs, Umbra, and HawkEye 360; GPS; miniature CubeSats for education and research; and military/defense satellites.

Loading next visibility...
Identifier
22650, 1993-030E
Orbit
LEO
Country
Flag of CISCIS
Related business
Manufacturer
NPO PM
Mission
Defense Communications
Bus & Motor
STRELA-3, Unknown motor
Mass
225 kg wet, 225 kg dry
Launch date (UTC)
1993-05-11 (32 years ago)
Launch vehicle
TSIKLON-3
Launch site
Plesetsk Missile And Space Complex (PKMTR)
Object type
Payload
Rocket body
Debris
Shape & HBR
Cyl, 0.8 m
Radar Cross Section
1.257 m², Medium (>0.1 m² and < 1m²)

Expand to show TLE details & history
Last TLE update: 6 hours ago

TLE from 6 hours ago
0 COSMOS 2249
1 22650U 93030E   25288.57897660  .00000044  00000-0  18344-3 0  9994
2 22650  82.5812 119.6273 0008017 129.6047 333.2123 12.63179328495149
Epoch: 2025-10-15T13:53Z
TLE epoch observation values (Epoch: 2025-10-15T13:53:43.578Z)
Latitude
75.31415°
Longitude
37.21576°
Altitude
1,417.134 km
Speed
7.161 km/s
True Right ascension
17h 59m 59s
True Declination
75° 14' 12"
Sunlit
Object was in daylight at epoch
Visualization orbit readout
Latitude
Unknown
Longitude
Unknown
Altitude
Unknown
Speed
Unknown
Apparent Right ascension
Unknown
Apparent Declination
Unknown
Sunlit
N/A
Visualization observer readout
Local Sidereal Time
14:29:05
Azimuth
Unknown
Elevation
Unknown
Doppler factor
Unknown
Orbital elements
Apogee altitude
1,413.41 km
Perigee altitude
1,400.927 km
Semi-major axis
7,785.305 km
Eccentricity
0.0008
Inclination
82.5812°
RAAN
119.6273°
Arg. of periapsis
129.6047°
True anomaly
333.17086°
Mean anomaly
333.2123°
Eccentric anomaly
333.19158°
Mean motion
3.15958 °/min
Orbital period
113.94 mins
BSTAR
0.00018344
Loading maneuver chart data...
Computing Atmospheric mass density...
Loading historical data...
Loading historical data...
Loading historical data...
Loading historical data...
Loading historical data...
Loading historical data...
Loading historical data...

Documentation

Showing up to 5 results
|